Dewpoint
-19 -19 -19 -21 -24 -26 -26 -27 -28 -29 -29 -30 -30 -32 -33 -34 -34 -33 -34 -33 -32 -32 -24 -6 -8 -3 -3 -3 -2 -4 -4 -3 -5 -6 -8 -6 -6 -7 -7 -6 -7 -7 -4 -6 -3
-13 -13 -14 -17 -22 -22 -25 -27 -28 -28 -29 -30 -30 -30 -32 -33 -34 -33 -15 -16 -21 -22 -11 -8 -9 -5 -4 -2 -1 -1 -2 -4 -5 -6 -7 -7 -6 -7 -6 -6 -6 -6 -8 -6 -5
-13 -13 -16 -15 -18 -18 -24 -26 -27 -29 -29 -30 -31 -31 -32 -33 -32 -14 -7 -7 -9 -6 -7 -10 -9 -8 -6 -2 -0 -0 -2 -3 -4 -5 -5 -5 -5 -5 -6 -4 -6 -5 -6 -6 -5
-7 -9 -10 -14 -15 -21 -24 -25 -28 -28 -29 -30 -29 -28 -25 -20 -25 -10 -8 -8 -7 -6 -6 -6 -9 -8 -8 -7 -4 -3 -0 -3 -4 -5 -5 -5 -6 -6 -5 -5 -5 -4 -4 -4 -5
-5 -5 -8 -14 -18 -23 -26 -26 -28 -29 -30 -28 -24 -18 -13 -11 -23 -29 -7 -8 -9 -7 -7 -6 0 -2 -3 -5 -6 -2 -4 -4 -4 -4 -3 -3 -2 -2 -3 -2 -4 -3 -3 -4 -5
-4 -4 -7 -11 -16 -25 -27 -26 -27 -29 -27 -23 -17 -13 -5 -1 -20 -20 -24 -9 -6 -8 -7 -5 -2 -0 -1 -4 -4 -5 -6 -6 -5 -4 -4 -4 -5 -3 -4 -4 -4 -4 -4 -4 -6
-2 -2 -4 -8 -18 -26 -26 -26 -27 -27 -24 -17 -14 -7 -3 -18 -17 -17 -19 -15 -14 -12 -9 -6 -4 -3 -4 -8 -8 -6 -4 -4 -3 -3 -3 -3 -3 -2 -4 -3 -3 -3 -4 -5 -6
-2 -3 -5 -6 -14 -26 -27 -27 -22 -21 -13 -8 -5 -1 -8 -15 -14 -14 -13 -17 -18 -14 -12 -7 -5 -9 -9 -9 -7 -5 -4 -4 -2 -2 -3 -3 -2 -6 -5 -5 -5 -5 -5 -6 -7
-4 -4 -5 -7 -11 -25 -26 -22 -15 -5 -2 -2 -2 -0 -4 -9 -4 -4 -4 -4 -5 -9 -12 -7 -7 -8 -8 -6 -5 -4 -4 1 -1 -2 -2 -3 -2 -4 -5 -5 -5 -5 -5 -6 -5
-5 -5 -5 -9 -19 -25 -26 -14 -3 -1 -1 1 1 1 -6 -5 -2 -2 -3 -5 -5 -5 -7 -6 -6 -5 -5 -5 -4 -4 -0 0 0 -2 -3 -2 -1 -2 -3 -3 -3 -3 -4 -4 -5
-7 -9 -8 -12 -20 -19 -15 -10 -8 -3 -6 -5 -8 -4 -7 -8 -8 -6 -3 -5 -6 -5 -3 -5 -4 -3 -5 -4 -6 -5 -3 -3 -2 -3 -2 -3 -3 -3 -3 -2 -2 -2 -3 -3 -5
-7 -8 -7 -12 -17 -12 -2 -3 -3 -3 -1 -8 -6 -2 -5 -5 -2 -3 -2 -3 -4 -0 -3 -1 -1 -4 -5 -5 -4 -3 -3 -3 -2 -2 -2 -1 -1 -2 -2 -2 -3 -3 -3 -3 -5
-6 -4 -7 -13 -14 -13 -2 -2 -3 -1 0 -2 -5 -3 -4 -2 0 -2 -5 -4 -5 -0 -1 1 -2 -2 -3 -3 -2 -1 0 1 1 -0 -0 1 0 -3 -4 -3 -3 -3 -3 -4 -4
-6 -5 -8 -12 -11 -13 -3 -5 -4 -0 -1 -10 -4 -2 -2 -2 -1 -4 -4 -6 -4 -4 -0 0 -2 -1 0 1 1 3 1 1 2 3 4 2 5 0 -2 -2 -3 -3 -2 -3 -5
-5 -6 -9 -9 -9 -10 -12 -8 -4 0 -19 -15 -2 -3 -5 -3 -4 -5 -4 -5 -5 -1 1 -1 4 3 1 0 1 3 1 2 3 4 5 3 5 1 -0 -0 -1 -2 -2 -3 -5
-6 -10 -9 -9 -10 -11 -13 -9 -2 -10 -21 -10 -5 -8 -7 -4 -3 -5 -5 -5 -5 0 3 -1 3 3 2 2 2 1 3 3 4 4 6 3 4 2 1 0 -1 -3 -3 -1 -1
-12 -11 -8 -10 -10 -13 -13 -4 -17 -17 -9 -4 -4 -8 -7 -3 -3 -5 -4 -4 -1 2 3 2 3 3 2 3 3 3 4 5 6 7 5 2 4 3 2 6 5 5 5 6 5
-10 -9 -10 -7 -12 -11 -5 -7 -19 -6 -3 -6 -8 -6 -2 -1 -2 -3 -4 -3 -5 -3 1 1 -2 3 3 1 1 5 4 4 6 7 6 4 5 4 6 5 6 7 7 7 8
-12 -10 -7 -7 -10 -9 -6 -9 -7 -3 -5 -6 -8 -0 -0 -3 -2 -1 -2 -4 -4 -3 -2 -0 -3 2 3 2 1 5 6 4 7 6 7 4 2 5 5 6 6 6 6 7 8
-11 -10 -4 -6 -6 -5 -5 -6 -6 -6 -5 -5 -4 -3 -5 -6 -5 -1 -0 -1 3 -4 -4 -3 -2 -1 2 2 3 5 4 8 8 7 7 5 5 7 8 7 6 6 6 7 8
-11 -8 -4 -4 -5 -7 -5 -6 -5 -6 -5 -4 -4 -6 -8 -4 -1 -0 1 2 2 3 -1 -3 -2 2 3 4 4 6 7 6 7 8 7 6 5 7 8 7 7 5 6 6 6
-8 -6 -5 -4 -5 -4 -3 -4 -4 -4 -4 -5 -3 -3 -3 -2 1 0 1 1 2 2 3 0 1 1 3 1 2 4 5 5 7 7 8 7 6 7 7 6 6 4 4 5 5
-6 -6 -6 -4 -3 -4 -5 -4 -4 -5 -4 -4 -4 -4 -5 -3 -2 -1 1 1 1 3 4 3 4 4 3 4 5 5 5 6 6 6 6 7 5 6 6 5 6 4 3 3 4
-6 -7 -5 -4 -4 -2 -3 -4 -3 -5 -5 -4 -3 -4 -3 -2 -2 -0 0 -0 1 1 3 2 3 1 1 2 2 3 2 1 5 6 7 5 4 3 6 6 6 4 3 2 2
-5 -5 -4 -5 -3 -4 -4 -4 -4 -4 -4 -4 -3 -1 -3 -1 -2 -1 -1 1 -1 0 3 2 4 3 2 1 2 2 0 -1 -0 1 3 -1 1 1 3 5 6 4 3 1 1
-5 -4 -4 -4 -4 -5 -6 -6 -7 -4 -4 -6 -4 -3 -5 -4 -4 -1 -1 -1 2 2 3 3 4 3 1 -0 -3 -4 -6 -6 -4 -2 -1 0 2 1 2 5 6 3 2 1 0
-5 -4 -4 -5 -4 -6 -6 -7 -7 -7 -7 -7 -6 -4 -4 -4 -1 -0 0 -0 1 3 3 2 2 1 -2 -2 -3 -6 -4 -6 -3 1 2 4 2 1 5 7 6 3 1 1 -1
Wind_Speed
16 17 18 18 19 19 19 19 19 19 20 22 20 22 23 24 26 24 23 18 13 13 18 16 8 11 13 12 9 9 5 10 8 8 6 5 4 7 7 7 4 5 6 14 15
16 17 19 20 20 19 18 19 20 20 20 21 22 22 24 25 28 28 13 13 14 15 18 22 14 13 8 8 8 6 6 9 7 7 10 10 8 12 4 10 16 16 14 11 18
15 17 18 18 19 20 20 21 20 20 19 19 21 22 24 23 22 1 1 1 8 9 15 17 13 13 6 6 8 6 9 5 6 9 9 8 15 14 13 13 22 21 17 20 22
15 16 17 17 18 19 20 20 20 19 19 20 20 21 23 19 5 5 7 5 7 10 12 13 11 9 5 6 8 6 9 11 6 16 18 18 27 24 21 17 28 28 30 27 30
15 17 18 18 19 20 20 20 20 19 19 20 20 22 22 11 13 12 15 13 7 9 12 12 11 7 5 5 3 6 6 10 17 18 22 22 22 21 17 19 33 31 31 28 29
14 17 18 19 20 21 21 21 21 20 20 19 19 20 14 4 5 7 14 17 16 9 10 13 6 10 4 5 6 3 8 9 9 17 18 20 25 15 20 19 27 29 29 30 28
14 17 19 20 21 20 21 21 21 21 21 19 16 16 16 21 16 17 14 13 18 19 16 13 14 7 5 2 7 5 7 10 12 13 9 14 12 15 25 25 23 27 26 28 29
16 19 21 22 22 22 22 20 20 20 18 14 13 11 11 14 13 10 12 15 16 17 17 14 14 10 7 6 2 4 4 7 2 1 7 6 9 9 13 16 19 21 23 28 27
17 19 21 23 24 22 20 19 19 13 11 12 8 5 10 5 5 1 1 4 4 16 16 10 11 7 4 4 5 2 6 6 5 6 10 8 9 6 15 12 16 19 20 19 21
16 19 21 22 19 19 18 18 10 9 7 5 1 2 6 3 1 1 3 3 1 6 12 10 6 3 1 7 8 5 5 4 4 6 13 19 21 12 17 13 15 18 19 18 20
16 17 18 20 16 13 16 9 5 3 8 11 20 15 27 19 24 12 9 5 2 6 6 5 7 13 16 11 13 9 11 13 10 8 14 17 22 20 18 17 18 20 21 21 24
15 17 18 17 10 9 11 8 10 12 13 28 24 25 28 22 12 12 13 8 10 10 4 1 11 11 7 11 9 10 12 13 10 8 9 14 23 20 18 21 25 26 23 24 28
16 16 18 17 4 8 4 10 11 13 5 13 7 7 5 1 7 11 17 9 5 10 10 10 4 2 11 6 8 9 10 9 10 13 12 17 20 18 16 22 25 23 23 24 26
13 14 18 17 5 10 2 8 11 10 3 5 3 3 3 1 5 5 12 14 6 10 5 7 8 8 6 7 8 7 6 9 7 6 4 6 10 11 16 17 16 21 22 23 26
8 13 15 17 11 6 10 5 6 3 5 9 3 4 13 4 8 3 5 12 10 5 6 6 5 6 12 13 8 5 2 4 6 8 7 9 7 5 6 12 15 16 22 23 23
10 13 13 13 10 10 8 3 2 1 5 7 5 12 12 4 4 6 3 8 7 5 3 5 1 4 4 3 6 3 2 6 5 4 4 11 12 7 6 5 9 10 12 11 15
9 10 13 15 13 9 5 1 2 3 8 8 8 11 11 10 6 2 5 6 4 4 8 4 6 2 3 3 1 3 1 2 1 3 4 1 9 12 15 12 11 10 16 18 16
8 9 9 12 9 6 2 3 3 4 5 7 8 12 4 12 7 13 1 4 4 3 2 6 3 8 5 10 4 6 5 3 3 2 2 1 6 1 8 11 15 15 17 18 19
8 9 8 8 7 3 2 3 1 2 6 10 11 5 5 7 6 12 7 3 5 9 5 4 2 2 4 2 4 3 5 1 2 3 4 4 4 10 13 17 19 21 23 26 27
8 6 9 7 6 4 4 3 1 2 5 4 3 6 6 10 8 10 5 7 10 3 5 3 1 1 3 3 3 3 4 3 3 3 4 3 3 4 14 18 19 19 21 24 25
7 4 7 7 5 6 3 1 3 4 5 3 2 5 5 5 3 3 5 7 15 13 9 3 2 1 5 6 8 4 2 3 1 3 2 3 1 4 9 11 13 15 20 21 21
5 3 4 2 4 3 1 1 5 4 4 4 3 5 5 6 5 4 6 1 19 21 7 2 3 4 6 2 6 5 6 5 2 2 3 1 4 3 6 10 12 13 17 19 18
4 3 2 2 2 1 1 3 4 3 3 3 4 4 4 4 4 8 5 1 15 11 4 7 1 3 4 3 5 2 1 1 4 3 4 3 2 2 2 6 4 11 13 17 19
3 2 3 3 3 2 2 3 3 6 5 4 5 7 7 5 7 6 6 4 9 19 15 7 1 5 3 5 3 3 4 3 3 2 3 7 14 13 3 3 5 8 11 13 16
3 1 1 1 2 1 1 2 3 4 3 5 3 3 7 5 9 6 9 5 4 15 4 2 1 3 1 2 2 2 6 7 7 8 7 10 14 16 12 6 9 10 13 15 15
4 2 2 1 1 1 1 2 6 4 2 5 6 9 10 8 12 20 19 14 4 3 2 2 1 2 3 3 2 6 10 8 8 7 14 15 19 15 18 5 12 13 18 13 12
6 4 1 1 2 1 3 2 2 8 7 9 10 14 15 14 14 19 20 17 16 8 3 2 4 1 3 2 7 3 4 5 3 7 7 8 15 11 4 5 12 15 19 19 11
Wind_Direction
317 319 318 317 316 315 318 315 313 314 315 316 317 311 310 309 308 306 294 280 259 234 211 203 178 170 171 177 179 174 216 235 227 213 248 258 252 243 244 267 254 293 266 310 336
322 322 323 322 322 324 322 317 317 318 320 317 315 315 314 316 315 313 290 268 235 215 203 202 188 177 174 176 189 193 226 233 202 225 259 268 246 261 285 291 286 294 288 289 331
319 322 324 328 326 328 324 322 321 322 320 315 313 316 320 325 325 275 66 111 186 192 193 198 178 185 182 175 192 194 237 214 208 232 250 260 262 262 262 263 269 284 289 295 303
325 327 328 326 325 323 321 323 322 323 318 315 317 317 320 330 309 190 186 171 175 185 174 178 173 157 171 201 216 236 231 224 232 245 256 253 268 262 254 256 272 277 286 290 290
330 333 333 328 325 321 320 321 319 320 313 314 314 314 320 313 275 257 223 208 201 201 199 192 178 156 184 195 200 235 259 247 250 253 255 259 251 256 264 256 274 277 282 282 282
334 336 338 333 329 322 323 321 319 314 309 307 305 305 305 284 284 264 252 232 240 238 211 206 217 216 221 203 206 205 223 271 259 248 251 251 259 254 263 260 264 268 275 278 277
331 328 327 328 327 321 322 322 318 311 310 302 294 287 285 274 277 263 254 231 236 247 246 231 220 199 210 261 248 258 276 277 255 237 241 246 254 243 257 263 251 264 268 269 272
319 318 326 329 331 326 327 324 315 314 311 310 298 269 258 293 291 286 260 254 244 235 235 238 226 233 211 264 305 269 259 264 238 219 249 209 249 278 280 265 255 260 260 266 275
312 316 318 327 331 334 330 325 315 309 314 323 308 255 268 291 341 43 329 213 236 222 216 225 227 218 190 202 270 207 256 226 282 264 283 240 290 306 305 307 290 269 270 270 273
326 326 319 324 333 333 330 327 314 305 327 337 334 293 255 271 295 275 292 239 220 203 195 204 203 204 180 198 238 201 218 232 254 299 305 292 285 288 297 296 278 279 276 276 279
337 340 333 336 344 348 341 335 312 280 303 271 267 267 273 277 270 256 239 214 223 187 172 181 207 220 227 223 238 271 274 269 270 268 294 283 282 286 282 277 282 278 274 275 272
341 340 342 357 6 14 0 55 27 324 304 304 288 273 274 265 287 247 221 197 185 206 113 188 234 237 214 216 233 249 268 278 281 257 294 293 286 285 275 275 274 275 267 264 271
340 343 355 3 44 18 28 27 355 337 274 300 303 271 341 252 225 266 219 210 193 192 187 207 210 130 206 203 228 244 247 266 279 308 290 289 288 274 260 253 255 256 257 263 263
333 344 357 16 40 354 1 337 334 323 320 282 345 349 2 348 240 284 224 199 200 207 176 239 234 207 185 221 197 264 237 254 281 306 288 11 292 283 279 266 246 244 251 260 264
341 348 3 16 350 352 330 332 329 304 332 344 39 24 332 231 298 354 171 205 214 165 158 223 187 195 221 237 185 233 228 239 263 268 292 260 261 319 292 270 262 253 247 249 263
344 353 0 358 348 326 335 348 353 18 259 334 13 344 348 324 273 137 176 216 212 193 255 244 276 184 201 186 191 148 231 259 248 257 256 239 219 282 279 324 321 327 280 312 300
348 360 357 346 340 338 6 69 41 206 360 355 341 332 331 332 319 275 172 186 167 176 214 193 219 193 163 185 195 181 164 292 240 193 260 95 178 259 329 358 4 357 350 338 331
358 1 357 359 10 8 65 59 201 32 344 356 331 314 12 21 346 338 260 199 223 193 155 204 215 175 185 211 207 181 188 221 247 233 300 200 233 181 28 17 11 15 0 340 334
358 5 25 19 39 77 65 83 87 26 328 326 328 345 351 10 345 9 321 254 229 191 215 178 263 163 163 163 180 139 199 263 298 233 268 241 260 191 14 18 10 7 6 352 344
11 36 27 55 69 72 71 113 244 26 329 332 314 18 334 334 333 7 303 17 343 282 326 226 199 28 110 101 40 163 141 187 171 245 240 256 258 331 19 9 0 2 4 355 350
33 80 55 105 75 45 96 204 291 279 353 333 321 312 300 300 287 287 275 328 17 342 313 183 214 80 149 197 178 166 207 226 237 236 270 297 277 93 54 28 8 5 0 356 357
59 64 85 79 55 51 81 343 314 291 308 282 244 249 260 298 298 262 247 300 340 313 294 236 168 194 213 111 198 179 190 203 217 204 236 269 270 143 90 39 20 19 8 2 3
63 58 54 86 99 120 283 278 261 294 284 327 298 273 310 283 313 281 273 319 335 314 338 338 197 192 145 111 65 138 131 301 290 239 248 280 309 169 72 35 332 41 30 12 8
64 55 51 77 101 97 47 304 308 309 283 273 266 287 293 272 242 275 283 303 342 324 289 1 340 274 191 95 132 188 235 253 153 266 359 276 284 293 260 323 73 54 46 37 16
65 126 92 27 93 115 241 243 298 324 314 326 294 68 8 310 312 257 264 282 300 307 280 76 352 323 159 105 171 193 248 252 241 239 242 278 275 282 291 255 130 103 62 44 27
123 121 104 235 302 12 340 253 280 308 276 293 264 332 326 297 290 295 304 296 262 293 344 36 197 233 318 154 194 268 278 283 260 256 257 273 279 283 279 219 139 117 91 62 42
173 176 95 262 155 135 233 245 322 336 292 260 310 318 303 303 314 301 289 271 274 285 336 284 173 228 268 283 318 253 157 335 286 292 278 299 304 291 333 192 142 124 104 90 54
Height
1508 1506 1505 1503 1502 1499 1498 1496 1493 1490 1488 1485 1483 1480 1477 1475 1473 1471 1468 1467 1467 1466 1469 1471 1476 1476 1479 1481 1482 1483 1485 1481 1483 1485 1477 1478 1477 1475 1475 1475 1474 1474 1472 1473 1471
1505 1503 1502 1501 1499 1497 1495 1493 1491 1488 1485 1482 1479 1477 1473 1471 1468 1465 1465 1460 1461 1463 1465 1467 1471 1475 1477 1478 1481 1480 1479 1474 1476 1476 1475 1474 1474 1474 1475 1474 1471 1470 1470 1470 1468
1502 1501 1499 1498 1496 1495 1492 1490 1488 1486 1482 1479 1475 1473 1472 1469 1464 1463 1464 1462 1459 1461 1462 1467 1467 1471 1475 1475 1478 1475 1469 1473 1473 1472 1473 1471 1469 1470 1471 1471 1470 1467 1467 1466 1465
1501 1497 1496 1494 1494 1492 1489 1488 1485 1483 1480 1477 1473 1470 1469 1469 1470 1462 1463 1465 1463 1463 1463 1465 1466 1468 1471 1472 1473 1473 1469 1468 1468 1470 1468 1465 1463 1463 1465 1467 1465 1464 1463 1462 1460
1497 1496 1493 1491 1490 1489 1486 1485 1483 1480 1476 1474 1471 1468 1467 1467 1463 1463 1460 1462 1464 1464 1463 1464 1466 1466 1467 1469 1470 1470 1467 1466 1465 1465 1461 1460 1457 1456 1456 1459 1456 1457 1457 1457 1454
1493 1492 1489 1487 1487 1485 1482 1482 1480 1476 1473 1471 1467 1466 1466 1464 1456 1459 1459 1461 1463 1464 1464 1463 1465 1466 1466 1465 1467 1465 1465 1463 1461 1458 1456 1453 1449 1455 1447 1450 1449 1449 1450 1450 1448
1490 1489 1488 1485 1483 1480 1478 1478 1476 1472 1470 1468 1463 1462 1463 1455 1452 1453 1456 1457 1459 1461 1463 1464 1464 1466 1464 1464 1463 1463 1465 1460 1454 1451 1449 1446 1445 1442 1440 1440 1442 1440 1441 1442 1441
1487 1487 1484 1481 1479 1476 1475 1475 1472 1468 1467 1464 1461 1460 1454 1451 1449 1448 1449 1453 1455 1457 1460 1464 1463 1464 1464 1462 1460 1462 1461 1459 1448 1448 1444 1445 1440 1437 1436 1434 1434 1433 1433 1434 1434
1484 1482 1481 1478 1476 1471 1471 1471 1467 1464 1461 1460 1460 1458 1450 1449 1449 1446 1446 1449 1451 1452 1456 1462 1463 1462 1463 1461 1463 1462 1457 1459 1451 1444 1442 1440 1432 1433 1432 1431 1429 1428 1428 1427 1427
1481 1478 1479 1475 1470 1470 1469 1467 1465 1463 1460 1459 1458 1458 1448 1451 1448 1448 1447 1447 1449 1450 1454 1458 1460 1460 1463 1461 1457 1455 1459 1457 1451 1443 1440 1436 1427 1430 1428 1427 1426 1426 1424 1423 1422
1479 1477 1477 1472 1468 1467 1468 1467 1468 1463 1461 1458 1452 1450 1445 1446 1449 1446 1445 1446 1447 1450 1450 1454 1457 1453 1452 1456 1453 1453 1454 1454 1451 1446 1443 1432 1424 1422 1425 1423 1421 1419 1419 1416 1415
1477 1475 1474 1469 1468 1467 1469 1469 1475 1475 1461 1445 1441 1443 1442 1442 1445 1441 1443 1444 1443 1445 1449 1455 1451 1449 1451 1452 1453 1453 1455 1451 1445 1441 1439 1429 1418 1419 1418 1415 1414 1412 1411 1410 1409
1477 1477 1469 1469 1467 1467 1470 1472 1472 1469 1467 1444 1441 1439 1438 1438 1439 1434 1439 1439 1440 1443 1446 1447 1444 1444 1448 1449 1450 1451 1451 1446 1445 1439 1436 1428 1408 1401 1404 1404 1405 1404 1404 1402 1400
1476 1475 1470 1465 1469 1470 1471 1473 1471 1468 1463 1445 1442 1441 1437 1436 1436 1431 1431 1437 1438 1438 1444 1443 1439 1442 1445 1445 1446 1448 1439 1441 1441 1444 1442 1432 1419 1405 1400 1397 1396 1395 1395 1394 1391
1474 1473 1469 1467 1470 1469 1472 1471 1470 1472 1456 1442 1440 1442 1440 1437 1433 1431 1431 1434 1433 1435 1440 1436 1436 1439 1441 1440 1443 1440 1438 1439 1439 1441 1442 1437 1437 1404 1397 1392 1387 1385 1386 1385 1384
1473 1471 1469 1469 1470 1471 1468 1469 1470 1471 1454 1445 1442 1445 1440 1434 1431 1430 1431 1434 1432 1435 1437 1434 1435 1435 1434 1436 1438 1437 1437 1437 1438 1439 1441 1425 1429 1406 1395 1388 1384 1382 1383 1383 1380
1470 1469 1469 1468 1470 1470 1468 1469 1470 1466 1454 1458 1454 1451 1446 1440 1433 1429 1429 1430 1431 1438 1437 1436 1434 1432 1433 1436 1437 1436 1437 1435 1437 1438 1426 1417 1425 1402 1396 1399 1394 1387 1384 1382 1377
1470 1469 1469 1468 1470 1469 1470 1470 1471 1470 1468 1463 1459 1451 1444 1447 1441 1436 1430 1430 1430 1433 1434 1432 1430 1429 1428 1429 1432 1435 1433 1431 1433 1426 1424 1415 1411 1399 1402 1400 1396 1390 1385 1383 1378
1469 1469 1470 1471 1470 1469 1472 1476 1474 1476 1475 1469 1460 1454 1452 1451 1450 1442 1438 1431 1428 1428 1428 1430 1428 1428 1427 1428 1429 1434 1435 1433 1438 1429 1431 1408 1398 1399 1396 1393 1391 1390 1387 1384 1377
1467 1468 1471 1471 1472 1472 1474 1475 1477 1476 1474 1471 1467 1463 1461 1457 1452 1448 1443 1433 1432 1428 1425 1423 1426 1424 1426 1426 1430 1430 1433 1436 1437 1431 1420 1402 1402 1399 1400 1397 1396 1394 1392 1389 1383
1467 1471 1474 1474 1473 1474 1481 1480 1479 1476 1475 1474 1471 1469 1464 1461 1456 1452 1443 1440 1439 1431 1428 1424 1423 1428 1425 1425 1426 1432 1434 1434 1433 1429 1419 1416 1402 1404 1406 1407 1404 1403 1399 1395 1388
1468 1474 1476 1476 1478 1480 1481 1481 1480 1476 1474 1472 1470 1468 1465 1461 1457 1452 1445 1446 1445 1446 1429 1422 1423 1423 1422 1419 1421 1423 1428 1427 1428 1424 1423 1422 1408 1404 1406 1408 1409 1407 1404 1399 1393
1471 1475 1478 1477 1481 1482 1481 1481 1479 1476 1474 1471 1469 1466 1463 1462 1462 1450 1445 1445 1446 1444 1433 1429 1423 1423 1422 1423 1425 1427 1429 1429 1428 1429 1423 1420 1405 1403 1404 1403 1407 1405 1403 1401 1395
1474 1479 1478 1478 1480 1481 1484 1482 1477 1475 1473 1472 1469 1466 1464 1459 1456 1452 1446 1442 1442 1441 1434 1432 1427 1424 1413 1418 1422 1426 1424 1423 1430 1431 1425 1422 1407 1399 1400 1401 1403 1406 1405 1402 1401
1476 1480 1480 1482 1481 1482 1482 1481 1479 1476 1473 1471 1467 1468 1469 1462 1455 1448 1443 1442 1439 1436 1430 1432 1431 1426 1422 1421 1423 1424 1423 1422 1423 1420 1421 1405 1406 1400 1398 1398 1400 1405 1404 1404 1404
1477 1478 1480 1481 1481 1481 1480 1478 1476 1476 1475 1470 1469 1466 1467 1467 1464 1458 1455 1446 1438 1437 1434 1432 1430 1430 1423 1423 1424 1421 1417 1418 1416 1413 1411 1407 1401 1398 1394 1396 1400 1403 1402 1408 1409
1475 1478 1480 1480 1481 1482 1481 1477 1476 1477 1471 1469 1469 1468 1463 1460 1458 1453 1451 1447 1443 1438 1434 1430 1428 1429 1423 1424 1419 1416 1415 1413 1413 1409 1407 1404 1398 1393 1395 1395 1399 1404 1404 1406 1412